�N����,����,�~����,�C��,���x,�C��,����,���ϕ���,�ő�u�ԕ���,�ő厞����,���˗�,�I�_���x,�n�����x,�ő啗���N��,DTYPE
"23/03/24","00:10",0.0,17.5,97.6,1000.8,68.7,1.2,3.1,118.3,0.00,17.2,14.4,"00:01:12",1
"23/03/24","00:20",0.0,17.7,97.7,1000.5,239.5,1.6,3.3,124.2,0.00,17.4,14.3,"00:15:52",1
"23/03/24","00:30",0.0,17.9,97.6,1000.5,325.3,1.3,2.6,327.0,0.00,17.6,14.7,"00:22:56",1
"23/03/24","00:40",0.0,18.0,97.6,1001.0,228.6,1.1,2.4,229.2,0.00,17.7,14.5,"00:30:08",1
"23/03/24","00:50",0.0,18.2,97.6,1000.8,270.0,1.5,3.3,257.5,0.00,17.9,14.5,"00:45:44",1
"23/03/24","01:00",0.0,18.3,97.6,1000.3,270.8,1.7,2.9,251.9,0.00,18.0,14.4,"00:57:36",1
"23/03/24","01:10",0.0,18.2,97.4,1000.5,287.9,1.7,3.6,339.4,0.00,17.8,14.5,"01:07:36",1
"23/03/24","01:20",0.0,18.3,97.3,1000.3,324.7,1.5,2.9,336.5,0.00,17.9,14.3,"01:10:56",1
"23/03/24","01:30",0.0,18.1,97.3,1000.3,108.4,1.1,2.7,113.8,0.00,17.7,14.4,"01:25:28",1
"23/03/24","01:40",0.0,18.0,97.3,1000.5,169.0,0.3,0.9,87.8,0.00,17.6,14.4,"01:30:16",1
"23/03/24","01:50",0.0,17.9,97.3,1000.8,207.2,0.5,1.3,191.9,0.00,17.5,14.6,"01:48:56",1
"23/03/24","02:00",0.0,17.8,97.4,1001.0,175.5,0.7,1.4,165.1,0.00,17.4,14.7,"01:52:32",1
"23/03/24","02:10",0.0,17.7,97.4,1000.8,343.9,1.0,1.8,341.1,0.00,17.3,14.5,"02:05:20",1
"23/03/24","02:20",0.0,17.6,97.4,1000.8,341.4,1.1,1.8,353.8,0.00,17.2,14.7,"02:10:48",1
"23/03/24","02:30",0.0,17.6,97.4,1001.2,339.9,0.8,1.7,349.7,0.00,17.2,14.5,"02:20:24",1
"23/03/24","02:40",0.0,17.5,97.4,1001.2,353.6,0.8,2.4,340.5,0.00,17.1,14.6,"02:36:16",1
"23/03/24","02:50",0.0,17.6,97.5,1001.7,337.4,2.0,4.3,299.6,0.00,17.2,14.4,"02:48:32",1
"23/03/24","03:00",0.0,17.8,97.3,1001.9,300.9,2.2,3.6,297.2,0.00,17.4,14.3,"02:56:32",1
"23/03/24","03:10",0.0,17.8,97.1,1001.7,298.6,1.6,2.2,258.0,0.00,17.4,14.5,"03:09:28",1
"23/03/24","03:20",0.0,17.7,96.9,1001.9,290.0,2.0,3.3,265.2,0.00,17.2,14.5,"03:14:56",1
"23/03/24","03:30",0.0,17.5,96.5,1001.5,266.1,2.5,3.9,291.2,0.00,17.0,14.2,"03:28:00",1
"23/03/24","03:40",0.0,17.5,96.1,1001.9,299.5,3.1,6.6,327.5,0.00,16.9,14.4,"03:32:16",1
"23/03/24","03:50",0.0,17.5,95.9,1002.4,310.9,3.0,5.4,346.7,0.00,16.9,14.6,"03:41:12",1
"23/03/24","04:00",0.0,17.4,95.5,1002.4,312.1,3.2,5.1,314.4,0.00,16.7,14.5,"03:58:16",1
"23/03/24","04:10",0.0,17.5,95.1,1002.2,307.5,2.8,4.4,305.1,0.00,16.7,14.3,"04:04:16",1
"23/03/24","04:20",0.0,17.5,94.7,1002.2,300.7,3.1,4.7,319.9,0.00,16.7,14.4,"04:13:44",1
"23/03/24","04:30",0.0,17.5,94.2,1002.2,316.2,3.4,5.2,346.6,0.00,16.6,14.5,"04:21:52",1
"23/03/24","04:40",0.0,17.5,93.7,1002.4,315.6,3.0,4.7,338.8,0.00,16.5,14.6,"04:36:08",1
"23/03/24","04:50",0.0,17.6,92.9,1002.4,294.5,2.6,4.3,345.5,0.00,16.5,14.4,"04:41:36",1
"23/03/24","05:00",0.0,17.7,92.1,1002.4,297.1,2.7,5.1,320.0,0.00,16.4,14.5,"04:53:12",1
"23/03/24","05:10",0.0,17.7,91.6,1002.6,321.0,1.5,3.1,333.4,0.00,16.4,14.5,"05:03:20",1
"23/03/24","05:20",0.0,17.4,91.5,1002.4,313.6,0.8,1.8,230.7,0.00,16.0,14.6,"05:15:36",1
"23/03/24","05:30",0.0,17.3,91.5,1002.6,319.5,1.0,2.1,312.9,0.00,15.9,14.6,"05:28:56",1
"23/03/24","05:40",0.0,17.2,91.5,1003.1,171.9,0.3,1.4,345.0,0.00,15.8,14.5,"05:30:08",1
"23/03/24","05:50",0.0,17.1,91.7,1003.1,321.2,1.0,1.8,339.4,0.00,15.8,14.5,"05:48:32",1
"23/03/24","06:00",0.0,17.1,91.7,1002.9,324.4,1.6,2.8,340.3,0.00,15.8,14.4,"05:54:00",1
"23/03/24","06:10",0.0,17.1,91.6,1003.1,320.2,1.3,2.0,330.7,0.00,15.8,14.5,"06:03:04",1
"23/03/24","06:20",0.0,17.0,91.6,1003.4,312.5,0.8,1.4,305.8,0.00,15.7,14.4,"06:11:28",1
"23/03/24","06:30",0.0,16.9,91.7,1003.4,342.1,0.8,2.6,337.3,0.00,15.6,14.6,"06:20:32",1
"23/03/24","06:40",0.0,16.9,91.9,1003.8,126.4,0.5,1.3,255.6,0.00,15.6,14.5,"06:39:44",1
"23/03/24","06:50",0.0,16.7,92.1,1003.6,330.0,1.2,1.4,263.5,0.00,15.5,14.3,"06:40:48",1
"23/03/24","07:00",0.0,16.7,92.3,1003.6,330.8,1.0,2.1,328.8,0.00,15.5,14.4,"06:56:24",1
"23/03/24","07:10",0.0,16.6,92.5,1003.8,328.3,0.7,1.9,347.6,0.00,15.4,14.5,"07:08:00",1
"23/03/24","07:20",0.0,16.6,92.8,1004.1,339.0,1.2,1.8,318.4,0.00,15.5,14.5,"07:13:36",1
"23/03/24","07:30",0.0,16.6,92.9,1003.8,324.8,1.2,1.8,320.6,0.02,15.5,14.3,"07:20:32",1
"23/03/24","07:40",0.0,16.7,93.1,1003.8,254.8,0.5,1.0,302.9,0.03,15.6,14.5,"07:30:08",1
"23/03/24","07:50",0.0,16.9,93.2,1004.3,258.9,0.7,1.0,267.3,0.04,15.8,14.6,"07:40:40",1
"23/03/24","08:00",0.0,16.9,93.2,1004.3,267.3,0.7,1.4,251.1,0.06,15.8,14.4,"07:58:40",1
"23/03/24","08:10",0.0,17.2,92.8,1004.3,305.5,1.3,3.3,359.7,0.15,16.1,14.5,"08:09:36",1
"23/03/24","08:20",0.0,17.4,91.8,1005.0,328.3,2.0,3.7,344.2,0.12,16.1,14.4,"08:11:20",1
"23/03/24","08:30",0.0,17.8,90.8,1005.2,321.8,1.6,3.1,312.6,0.08,16.3,14.3,"08:26:00",1
"23/03/24","08:40",0.0,17.6,89.8,1005.7,299.6,1.8,3.3,337.1,0.08,15.9,14.2,"08:31:12",1
"23/03/24","08:50",0.0,17.6,88.7,1006.0,293.9,2.0,3.2,317.2,0.06,15.8,14.3,"08:47:44",1
"23/03/24","09:00",0.0,17.7,87.7,1005.2,302.8,1.8,2.8,327.0,0.09,15.7,14.3,"08:50:56",1
"23/03/24","09:10",0.0,17.8,86.9,1005.2,308.3,2.1,3.2,338.6,0.10,15.6,14.3,"09:08:32",1
"23/03/24","09:20",0.0,17.9,86.3,1006.2,314.4,2.1,3.2,313.2,0.08,15.6,14.4,"09:11:44",1
"23/03/24","09:30",0.0,17.8,85.8,1005.7,293.1,2.3,4.1,262.7,0.11,15.4,14.4,"09:20:02",1
"23/03/24","09:40",0.0,17.9,85.6,1005.7,307.3,2.1,3.9,311.2,0.20,15.5,14.5,"09:38:32",1
"23/03/24","09:50",0.0,18.2,84.8,1006.0,314.5,2.5,4.0,304.4,0.24,15.6,14.5,"09:49:44",1
"23/03/24","10:00",0.0,17.9,84.4,1006.0,305.8,3.4,4.8,284.6,0.22,15.3,14.6,"09:57:28",1
"23/03/24","10:10",0.0,17.7,84.5,1006.2,302.8,3.1,5.2,326.0,0.15,15.1,14.5,"10:09:04",1
"23/03/24","10:20",0.0,17.5,84.6,1006.4,306.8,3.1,5.7,336.2,0.12,14.9,14.4,"10:17:20",1
"23/03/24","10:30",0.0,17.5,85.0,1006.4,321.5,3.1,5.9,324.4,0.09,15.0,14.6,"10:24:48",1
"23/03/24","10:40",0.0,17.7,85.4,1006.0,319.0,2.3,5.6,326.9,0.12,15.3,14.5,"10:31:04",1
"23/03/24","10:50",0.0,17.7,85.0,1006.2,326.3,2.7,4.7,318.2,0.13,15.2,14.7,"10:46:48",1
"23/03/24","11:00",0.0,17.9,84.4,1006.2,301.3,2.2,3.6,310.9,0.16,15.3,14.5,"10:56:48",1
"23/03/24","11:10",0.0,18.8,84.1,1006.2,288.6,2.6,4.8,311.8,0.45,16.1,14.6,"11:02:48",1
"23/03/24","11:20",0.0,18.7,81.7,1005.7,306.1,2.7,4.8,333.3,0.31,15.5,14.7,"11:16:48",1
"23/03/24","11:30",0.0,19.2,80.2,1005.7,282.1,2.0,4.8,310.2,0.41,15.7,14.8,"11:22:16",1
"23/03/24","11:40",0.0,19.4,78.1,1005.5,317.8,1.7,3.3,246.0,0.26,15.5,14.7,"11:30:24",1
"23/03/24","11:50",0.0,19.4,76.8,1005.7,334.8,2.2,5.4,332.8,0.26,15.3,14.7,"11:49:44",1
"23/03/24","12:00",0.0,19.2,76.9,1005.7,349.3,2.6,5.0,319.1,0.22,15.1,14.7,"11:50:24",1
"23/03/24","12:10",0.0,19.3,76.3,1006.0,353.8,2.2,4.7,340.6,0.21,15.1,14.7,"12:07:20",1
"23/03/24","12:20",0.0,19.4,76.1,1006.2,347.2,2.7,5.8,345.1,0.24,15.1,14.7,"12:18:00",1
"23/03/24","12:30",0.0,19.5,74.9,1006.0,354.9,3.1,7.4,346.0,0.26,15.0,14.9,"12:26:32",1
"23/03/24","12:40",0.0,19.4,74.7,1006.0,348.5,2.5,4.7,350.9,0.18,14.8,14.9,"12:39:12",1
"23/03/24","12:50",0.0,19.1,75.0,1006.4,345.3,2.5,5.2,342.1,0.11,14.6,15.0,"12:41:28",1
"23/03/24","13:00",0.0,18.9,75.8,1006.2,356.7,2.3,5.0,336.0,0.08,14.6,15.0,"12:58:56",1
"23/03/24","13:10",0.0,18.6,76.6,1006.0,354.9,2.5,5.1,332.0,0.07,14.5,15.1,"13:08:56",1
"23/03/24","13:20",0.0,18.4,77.5,1006.0,2.0,2.6,4.4,349.7,0.08,14.4,15.0,"13:10:08",1
"23/03/24","13:30",0.0,18.4,77.9,1006.0,349.6,2.8,5.0,345.5,0.13,14.5,15.2,"13:20:02",1
"23/03/24","13:40",0.0,18.5,77.7,1006.0,355.6,3.0,5.5,347.9,0.12,14.6,15.2,"13:39:04",1
"23/03/24","13:50",0.0,18.3,77.6,1006.0,353.2,2.6,5.4,340.9,0.07,14.4,15.1,"13:40:24",1
"23/03/24","14:00",0.0,18.2,77.7,1006.0,351.9,2.5,4.8,347.4,0.08,14.3,15.1,"13:50:56",1
"23/03/24","14:10",0.0,18.3,78.0,1006.0,358.1,2.2,4.5,356.6,0.09,14.4,15.1,"14:05:32",1
"23/03/24","14:20",0.0,18.2,77.9,1005.7,354.9,2.7,5.0,354.1,0.12,14.3,15.4,"14:10:40",1
"23/03/24","14:30",0.0,18.3,77.7,1006.2,347.9,3.1,5.6,330.3,0.14,14.4,15.0,"14:22:24",1
"23/03/24","14:40",0.0,18.2,77.5,1006.2,352.9,2.6,5.7,334.9,0.13,14.2,15.2,"14:36:16",1
"23/03/24","14:50",0.0,18.2,76.7,1006.0,2.9,2.6,5.5,334.6,0.16,14.1,15.1,"14:49:28",1
"23/03/24","15:00",0.0,18.2,76.3,1006.0,18.8,2.2,5.4,0.1,0.14,14.0,15.2,"14:59:04",1
"23/03/24","15:10",0.0,17.8,76.5,1006.0,11.4,3.0,6.2,354.5,0.14,13.7,15.2,"15:06:40",1
"23/03/24","15:20",0.0,17.4,77.6,1006.4,351.8,3.2,5.2,348.8,0.12,13.5,15.3,"15:18:32",1
"23/03/24","15:30",0.0,17.1,78.4,1006.4,356.5,3.0,5.9,350.3,0.07,13.4,15.2,"15:22:32",1
"23/03/24","15:40",0.0,16.9,78.8,1006.7,354.7,2.6,5.5,345.2,0.06,13.2,15.4,"15:37:36",1
"23/03/24","15:50",0.0,16.7,79.4,1006.7,347.4,2.8,5.1,351.5,0.04,13.2,15.3,"15:44:56",1
"23/03/24","16:00",0.0,16.6,79.9,1006.4,339.4,3.1,5.6,345.6,0.03,13.2,15.1,"15:57:28",1
"23/03/24","16:10",0.0,16.5,80.0,1006.7,322.0,3.6,5.5,317.5,0.03,13.1,15.3,"16:01:44",1
"23/03/24","16:20",0.0,16.5,80.0,1006.7,327.9,3.5,5.9,333.2,0.04,13.1,15.2,"16:14:56",1
"23/03/24","16:30",0.0,16.4,80.0,1006.9,329.2,2.8,5.6,335.8,0.04,13.0,15.2,"16:26:48",1
"23/03/24","16:40",0.0,16.4,79.8,1006.7,334.1,3.1,5.0,349.8,0.04,12.9,15.1,"16:34:08",1
"23/03/24","16:50",0.0,16.2,79.7,1007.4,325.0,3.4,6.5,339.8,0.03,12.7,15.1,"16:48:16",1
"23/03/24","17:00",0.0,15.9,80.0,1007.4,326.1,3.2,7.0,318.2,0.02,12.5,15.1,"16:52:56",1
"23/03/24","17:10",0.0,15.7,80.1,1007.4,324.0,4.0,6.7,329.5,0.02,12.3,15.0,"17:01:20",1
"23/03/24","17:20",0.0,15.5,80.3,1007.4,336.1,2.7,5.1,316.8,0.01,12.2,15.1,"17:10:56",1
"23/03/24","17:30",0.0,15.4,80.6,1007.6,336.5,3.0,5.6,318.4,0.00,12.1,15.2,"17:23:10",1
"23/03/24","17:40",0.0,15.3,81.0,1007.6,335.5,2.8,6.2,333.7,0.00,12.1,15.0,"17:32:54",1
"23/03/24","17:50",0.0,15.2,81.4,1007.6,335.4,3.0,5.1,341.2,0.00,12.1,15.0,"17:45:42",1
"23/03/24","18:00",0.0,15.0,81.7,1008.3,340.5,2.5,5.1,353.2,0.00,11.9,15.1,"17:56:06",1
"23/03/24","18:10",0.0,14.9,81.8,1008.3,347.8,1.8,3.1,351.5,0.00,11.9,15.2,"18:04:34",1
"23/03/24","18:20",0.0,14.8,81.8,1008.1,345.7,2.0,4.8,341.9,0.00,11.8,14.9,"18:17:30",1
"23/03/24","18:30",0.0,14.6,82.0,1008.6,326.5,2.5,6.2,291.8,0.00,11.6,15.0,"18:27:14",1
"23/03/24","18:40",0.0,14.4,82.1,1008.8,337.5,2.6,4.5,11.5,0.00,11.4,15.2,"18:32:48",1
"23/03/24","18:50",0.0,14.2,82.0,1009.0,334.7,2.7,4.7,319.8,0.00,11.2,15.0,"18:41:30",1
"23/03/24","19:00",0.0,14.1,81.9,1008.8,330.2,2.5,5.4,321.8,0.00,11.1,14.8,"18:51:28",1
"23/03/24","19:10",0.0,14.1,81.7,1008.8,330.7,2.5,4.4,329.0,0.00,11.1,14.7,"19:03:00",1
"23/03/24","19:20",0.0,14.0,81.6,1008.6,340.3,1.8,3.6,325.1,0.00,10.9,14.8,"19:17:14",1
"23/03/24","19:30",0.0,13.8,81.5,1008.6,319.6,3.1,4.5,299.5,0.00,10.7,15.1,"19:23:04",1
"23/03/24","19:40",0.0,13.8,81.6,1008.8,325.4,2.7,4.7,311.6,0.00,10.8,14.9,"19:36:42",1
"23/03/24","19:50",0.0,13.8,81.6,1008.8,321.0,3.6,4.7,319.1,0.00,10.8,14.9,"19:42:04",1
"23/03/24","20:00",0.0,13.8,81.4,1009.3,324.5,3.7,5.6,312.9,0.00,10.7,14.7,"19:52:58",1
"23/03/24","20:10",0.0,13.8,81.4,1009.3,329.5,3.4,4.9,309.4,0.00,10.7,14.7,"20:02:46",1
"23/03/24","20:20",0.0,13.7,81.5,1009.5,311.3,3.5,5.2,313.8,0.00,10.6,14.8,"20:12:32",1
"23/03/24","20:30",0.0,13.7,81.6,1009.5,320.6,3.7,6.0,320.8,0.00,10.7,14.7,"20:28:16",1
"23/03/24","20:40",0.0,13.7,81.8,1009.3,319.8,4.4,6.5,330.2,0.00,10.7,14.6,"20:33:54",1
"23/03/24","20:50",0.0,13.6,82.2,1009.7,323.9,3.4,5.6,305.6,0.00,10.7,14.7,"20:40:34",1
"23/03/24","21:00",0.0,13.5,82.6,1009.7,329.3,2.8,4.2,298.6,0.00,10.6,14.7,"20:58:22",1
"23/03/24","21:10",0.0,13.4,82.9,1009.7,320.2,2.7,4.4,354.4,0.00,10.6,14.6,"21:07:48",1
"23/03/24","21:20",0.0,13.4,83.1,1009.7,317.9,2.8,5.1,319.3,0.00,10.6,14.6,"21:14:22",1
"23/03/24","21:30",0.0,13.4,83.2,1010.9,304.9,2.2,3.6,309.6,0.00,10.7,14.5,"21:22:44",1
"23/03/24","21:40",0.0,13.5,83.4,1010.9,302.8,2.6,3.7,307.7,0.00,10.8,14.4,"21:34:24",1
"23/03/24","21:50",0.0,13.4,83.6,1010.4,314.1,2.7,4.1,324.2,0.00,10.7,14.6,"21:47:14",1
"23/03/24","22:00",0.0,13.3,84.0,1010.7,308.3,2.0,3.1,304.1,0.00,10.7,14.5,"21:52:18",1
"23/03/24","22:10",0.0,13.2,84.4,1010.2,294.1,1.8,2.8,325.1,0.00,10.7,14.5,"22:09:08",1
"23/03/24","22:20",0.0,13.1,84.7,1010.4,312.4,2.6,3.7,301.1,0.00,10.6,14.5,"22:15:42",1
"23/03/24","22:30",0.0,13.1,84.7,1010.2,295.4,2.1,3.4,303.2,0.00,10.6,14.4,"22:20:10",1
"23/03/24","22:40",0.0,13.2,84.9,1010.2,297.5,2.0,2.7,265.2,0.00,10.8,14.6,"22:30:08",1
"23/03/24","22:50",0.0,13.2,85.0,1010.0,314.7,2.3,3.6,321.3,0.00,10.8,14.4,"22:45:06",1
"23/03/24","23:00",0.0,13.0,85.1,1010.4,325.0,2.5,4.0,322.8,0.00,10.6,14.3,"22:54:12",1
"23/03/24","23:10",0.0,13.0,85.3,1010.2,319.6,2.6,4.0,309.6,0.00,10.6,14.2,"23:04:52",1
"23/03/24","23:20",0.0,13.0,85.2,1010.2,309.9,3.1,5.8,325.5,0.00,10.6,14.3,"23:19:32",1
"23/03/24","23:30",0.0,13.2,84.8,1010.0,310.1,3.5,6.7,305.0,0.00,10.7,14.4,"23:22:18",1
"23/03/24","23:40",0.0,13.1,84.3,1010.2,297.1,3.2,5.5,302.0,0.00,10.6,14.1,"23:31:26",1
"23/03/24","23:50",0.0,13.1,84.1,1010.0,300.4,2.7,5.5,251.7,0.00,10.5,14.3,"23:42:34",1
"23/03/24","24:00",0.0,13.1,84.1,1010.2,306.9,3.5,6.3,312.0,0.00,10.5,14.2,"23:59:08",1
